TimeMDT,TemperatureF,Dew PointF,Humidity,Sea Level PressureIn,VisibilityMPH,Wind Direction,Wind SpeedMPH,Gust SpeedMPH,PrecipitationIn,Events,Conditions,WindDirDegrees,DateUTC
12:33 AM,3.2,-2.2,78,30.20,6.0,WNW,10.4,-,0.00,Snow,Light Snow,290,2013-03-24 06:33:00
12:45 AM,3.2,-2.2,78,30.20,5.0,WNW,10.4,-,0.00,Snow,Light Snow,290,2013-03-24 06:45:00
12:51 AM,3.0,-2.0,80,30.36,5.0,WNW,10.4,-,0.00,Snow,Light Snow,290,2013-03-24 06:51:00
1:04 AM,3.2,-2.2,78,30.20,10.0,WNW,10.4,-,0.00,,Scattered Clouds,290,2013-03-24 07:04:00
1:17 AM,3.2,-2.2,78,30.20,10.0,West,11.5,-,0.00,,Partly Cloudy,280,2013-03-24 07:17:00
1:51 AM,1.9,-2.9,80,30.36,10.0,WNW,12.7,-,0.00,,Clear,290,2013-03-24 07:51:00
1:57 AM,1.4,-2.2,85,30.20,10.0,WNW,11.5,-,N/A,,Partly Cloudy,290,2013-03-24 07:57:00
2:34 AM,1.4,-2.2,85,30.19,6.0,WNW,10.4,-,N/A,,Haze,300,2013-03-24 08:34:00
2:51 AM,3.0,-2.9,76,30.35,6.0,WNW,12.7,-,N/A,,Haze,290,2013-03-24 08:51:00
3:38 AM,1.4,-4.0,78,30.19,9.0,West,12.7,-,N/A,,Scattered Clouds,280,2013-03-24 09:38:00
3:43 AM,1.4,-4.0,78,30.19,10.0,West,12.7,-,N/A,,Mostly Cloudy,280,2013-03-24 09:43:00
3:51 AM,1.0,-4.0,79,30.35,8.0,West,11.5,-,N/A,,Mostly Cloudy,280,2013-03-24 09:51:00
4:03 AM,1.4,-4.0,78,30.18,1.8,West,9.2,-,0.00,Snow,Light Snow,280,2013-03-24 10:03:00
4:14 AM,1.4,-4.0,78,30.19,3.0,West,9.2,-,0.00,Snow,Light Snow,280,2013-03-24 10:14:00
4:21 AM,1.4,-4.0,78,30.19,3.0,West,9.2,-,0.00,,Haze,280,2013-03-24 10:21:00
4:31 AM,1.4,-5.8,72,30.19,5.0,West,9.2,-,0.00,,Haze,280,2013-03-24 10:31:00
4:51 AM,3.0,-2.9,76,30.35,4.0,West,9.2,-,0.00,,Haze,280,2013-03-24 10:51:00
5:51 AM,5.0,-0.9,76,30.36,4.0,WNW,8.1,-,0.00,,Haze,290,2013-03-24 11:51:00
6:29 AM,5.0,-0.4,78,30.20,2.0,WNW,10.4,-,0.00,Snow,Light Snow,300,2013-03-24 12:29:00
7:09 AM,5.0,-0.4,78,30.21,5.0,WNW,10.4,-,0.00,,Haze,290,2013-03-24 13:09:00
7:46 AM,6.8,-0.4,72,30.21,2.5,WNW,12.7,-,0.00,Snow,Light Snow,290,2013-03-24 13:46:00
7:51 AM,6.1,-0.0,76,30.38,3.0,WNW,12.7,-,0.00,Snow,Light Snow,290,2013-03-24 13:51:00
8:13 AM,6.8,-0.4,72,30.21,2.0,WNW,11.5,-,0.00,Snow,Light Snow,290,2013-03-24 14:13:00
8:19 AM,6.8,1.4,79,30.21,1.5,WNW,12.7,-,0.00,Snow,Light Snow,290,2013-03-24 14:19:00
8:30 AM,6.8,1.4,79,30.21,2.0,WNW,12.7,-,0.00,Snow,Light Snow,290,2013-03-24 14:30:00
8:51 AM,8.1,1.9,76,30.39,4.0,West,11.5,-,0.00,,Haze,280,2013-03-24 14:51:00
9:25 AM,8.6,3.2,79,30.21,2.0,WNW,11.5,-,0.00,Snow,Light Snow,290,2013-03-24 15:25:00
9:40 AM,10.4,3.2,73,30.22,3.0,WNW,12.7,-,0.00,,Haze,290,2013-03-24 15:40:00
9:51 AM,10.0,5.0,80,30.39,3.0,WNW,13.8,-,0.00,Snow,Light Snow,290,2013-03-24 15:51:00
10:04 AM,10.4,5.0,79,30.22,3.0,WNW,12.7,-,0.00,Snow,Light Snow,300,2013-03-24 16:04:00
10:20 AM,10.4,5.0,79,30.23,2.0,WNW,13.8,20.7,0.00,Snow,Light Snow,300,2013-03-24 16:20:00
10:26 AM,10.4,5.0,79,30.23,1.8,WNW,15.0,-,0.00,Snow,Light Snow,300,2013-03-24 16:26:00
10:30 AM,12.2,5.0,73,30.23,2.0,WNW,15.0,-,0.00,Snow,Light Snow,300,2013-03-24 16:30:00
10:51 AM,12.0,5.0,73,30.40,3.0,WNW,17.3,-,0.00,Snow,Light Snow,300,2013-03-24 16:51:00
11:29 AM,14.0,6.8,73,30.23,2.5,WNW,16.1,-,0.00,Snow,Light Snow,300,2013-03-24 17:29:00
11:49 AM,14.0,6.8,73,30.24,3.0,NW,13.8,20.7,0.00,Snow,Light Snow,310,2013-03-24 17:49:00
11:51 AM,14.0,7.0,74,30.42,2.5,NW,16.1,20.7,0.00,Snow,Light Snow,320,2013-03-24 17:51:00
11:55 AM,14.0,6.8,73,30.24,1.8,WNW,16.1,-,0.00,Snow,Light Snow,300,2013-03-24 17:55:00
12:05 PM,15.8,6.8,68,30.23,2.5,WNW,17.3,-,0.00,Snow,Light Snow,300,2013-03-24 18:05:00
12:08 PM,15.8,6.8,68,30.24,3.0,WNW,17.3,23.0,0.00,Snow,Light Snow,300,2013-03-24 18:08:00
12:20 PM,15.8,6.8,68,30.23,2.5,WNW,16.1,-,0.00,Snow,Light Snow,300,2013-03-24 18:20:00
12:28 PM,15.8,6.8,68,30.24,4.0,NW,17.3,-,0.00,Snow,Light Snow,310,2013-03-24 18:28:00
12:49 PM,15.8,8.6,73,30.24,2.0,NW,20.7,-,0.00,Snow,Light Snow,310,2013-03-24 18:49:00
12:51 PM,17.1,8.1,68,30.41,1.8,NW,17.3,-,0.00,Snow,Light Snow,310,2013-03-24 18:51:00
1:03 PM,15.8,8.6,73,30.24,3.0,NW,18.4,23.0,0.00,Snow,Light Snow,310,2013-03-24 19:03:00
1:13 PM,15.8,6.8,68,30.24,2.5,NW,18.4,-,0.00,Snow,Light Snow,310,2013-03-24 19:13:00
1:18 PM,15.8,8.6,73,30.25,1.8,NW,17.3,-,0.00,Snow,Light Snow,320,2013-03-24 19:18:00
1:24 PM,15.8,8.6,73,30.25,1.8,WNW,16.1,-,0.00,Snow,Light Snow,300,2013-03-24 19:24:00
1:31 PM,15.8,8.6,73,30.25,1.5,NW,16.1,-,0.00,Snow,Light Snow,310,2013-03-24 19:31:00
1:38 PM,15.8,8.6,73,30.25,2.0,NW,17.3,-,0.00,Snow,Light Snow,310,2013-03-24 19:38:00
1:51 PM,17.1,8.1,68,30.42,2.0,NW,17.3,-,0.00,Snow,Light Snow,310,2013-03-24 19:51:00
2:26 PM,17.6,10.4,73,30.25,2.0,NW,17.3,-,0.00,Snow,Light Snow,310,2013-03-24 20:26:00
2:38 PM,17.6,10.4,73,30.25,1.5,NW,19.6,23.0,0.00,Snow,Light Snow,320,2013-03-24 20:38:00
2:51 PM,18.0,10.0,71,30.42,1.8,NW,18.4,-,0.00,Snow,Light Snow,320,2013-03-24 20:51:00
2:57 PM,17.6,10.4,73,30.25,2.5,NW,17.3,-,0.00,Snow,Light Snow,310,2013-03-24 20:57:00
3:08 PM,19.4,10.4,68,30.25,3.0,NW,16.1,-,0.00,Snow,Light Snow,310,2013-03-24 21:08:00
3:26 PM,19.4,10.4,68,30.25,2.0,NW,17.3,-,0.00,Snow,Light Snow,310,2013-03-24 21:26:00
3:40 PM,17.6,10.4,73,30.26,3.0,NW,17.3,-,0.00,,Haze,320,2013-03-24 21:40:00
4:02 PM,19.4,10.4,68,30.26,10.0,NW,15.0,-,N/A,,Mostly Cloudy,320,2013-03-24 22:02:00
4:37 PM,19.4,10.4,68,30.26,2.5,NW,16.1,-,0.00,Snow,Light Snow,310,2013-03-24 22:37:00
4:51 PM,19.0,10.9,71,30.43,2.5,NW,15.0,-,0.00,Snow,Light Snow,310,2013-03-24 22:51:00
4:56 PM,19.4,10.4,68,30.27,4.0,NW,11.5,-,0.00,Snow,Light Snow,310,2013-03-24 22:56:00
5:26 PM,19.4,10.4,68,30.27,2.0,NW,13.8,-,0.00,Snow,Light Snow,320,2013-03-24 23:26:00
5:31 PM,17.6,10.4,73,30.27,1.8,NW,13.8,-,0.00,Snow,Light Snow,320,2013-03-24 23:31:00
5:36 PM,19.4,10.4,68,30.27,3.0,NW,12.7,-,0.00,Snow,Light Snow,320,2013-03-24 23:36:00
5:51 PM,18.0,10.0,71,30.43,8.0,NNW,13.8,-,0.00,,Overcast,330,2013-03-24 23:51:00
6:10 PM,17.6,10.4,73,30.28,10.0,NNW,12.7,-,N/A,,Scattered Clouds,330,2013-03-25 00:10:00
6:51 PM,14.0,8.1,77,30.45,10.0,NNW,9.2,-,N/A,,Scattered Clouds,330,2013-03-25 00:51:00
7:06 PM,14.0,8.6,79,30.28,10.0,WNW,6.9,-,N/A,,Mostly Cloudy,300,2013-03-25 01:06:00
7:25 PM,15.8,8.6,73,30.28,2.0,NW,8.1,-,0.00,Snow,Light Snow,310,2013-03-25 01:25:00
7:35 PM,15.8,8.6,73,30.28,4.0,NW,8.1,-,0.00,Snow,Light Snow,310,2013-03-25 01:35:00
7:46 PM,15.8,8.6,73,30.28,6.0,NW,5.8,-,0.00,Snow,Light Snow,310,2013-03-25 01:46:00
7:51 PM,15.1,9.0,77,30.45,9.0,WNW,6.9,-,0.00,,Overcast,300,2013-03-25 01:51:00
8:19 PM,10.4,6.8,85,30.29,10.0,NW,5.8,-,N/A,,Scattered Clouds,310,2013-03-25 02:19:00
8:51 PM,8.1,3.9,83,30.48,10.0,NW,4.6,-,N/A,,Scattered Clouds,310,2013-03-25 02:51:00
8:56 PM,8.6,3.2,79,30.30,10.0,NNW,4.6,-,N/A,,Mostly Cloudy,330,2013-03-25 02:56:00
9:51 PM,10.9,6.1,81,30.47,6.0,West,5.8,-,N/A,,Haze,280,2013-03-25 03:51:00
10:51 PM,12.0,7.0,80,30.47,5.0,WNW,5.8,-,0.00,Snow,Light Snow,290,2013-03-25 04:51:00
11:51 PM,12.0,7.0,80,30.46,6.0,WNW,5.8,-,0.00,,Haze,290,2013-03-25 05:51:00